DW2762 Weather Reports


Display with metric or nautical units.
time (UTC)temp
F
wind
direction
speed
MPH
gust
MPH
rain 1hr
in
rain 24hr
in
rain mn
in
humidity
%
barometer
mb
20260508231609 49 360 8.0 11.0 0.00 0.00 0.00 87 1020.0
20260508230109 49 24 6.0 12.0 0.00 0.00 0.00 87 1019.9
20260508224609 49 40 4.0 8.0 0.00 0.00 0.00 87 1020.2
20260508223110 49 5 3.0 8.0 0.00 0.00 0.00 87 1020.0
20260508221609 49 28 4.0 8.0 0.00 0.00 0.00 86 1019.9
20260508220109 50 17 4.0 7.0 0.00 0.00 0.00 85 1019.9
20260508214608 50 22 2.0 8.0 0.00 0.00 0.00 84 1019.7
20260508211608 51 346 6.0 10.0 0.00 0.00 0.00 82 1019.6
20260508204608 52 44 6.0 9.0 0.00 0.00 0.00 82 1019.5
20260508203113 52 42 3.0 7.0 0.00 0.00 0.00 82 1019.3
20260508201613 52 9 5.0 8.0 0.00 0.00 0.00 81 1019.3
20260508194613 54 31 4.0 7.0 0.00 0.00 0.00 78 1018.9
20260508191613 55 16 6.0 12.0 0.00 0.00 0.00 74 1018.6
20260508190112 56 344 7.0 10.0 0.00 0.00 0.00 72 1018.6
20260508184612 56 15 4.0 8.0 0.00 0.00 0.00 70 1018.3
20260508183112 57 11 4.0 9.0 0.00 0.00 0.00 68 1018.1
20260508180112 58 40 6.0 10.0 0.00 0.00 0.00 67 1017.6
20260508174612 59 338 6.0 13.0 0.00 0.00 0.00 66 1017.3
20260508173112 60 5 10.0 13.0 0.00 0.00 0.00 63 1017.2
20260508171612 60 32 6.0 11.0 0.00 0.00 0.00 61 1017.1
20260508164612 62 340 7.0 13.0 0.00 0.00 0.00 61 1017.1
20260508163111 63 5 9.0 14.0 0.00 0.00 0.00 59 1017.2
20260508160111 63 56 10.0 14.0 0.00 0.00 0.00 60 1017.1
20260508154611 63 347 6.0 14.0 0.00 0.00 0.00 59 1017.1
20260508153111 65 46 7.0 10.0 0.00 0.00 0.00 52 1017.1
20260508151611 65 333 6.0 9.0 0.00 0.00 0.00 53 1017.2
20260508150112 65 38 1.0 4.0 0.00 0.00 0.00 52 1017.1
20260508144612 65 319 3.0 5.0 0.00 0.00 0.00 52 1017.3
20260508141611 64 247 2.0 4.0 0.00 0.00 0.00 53 1017.3
20260508140110 64 15 5.0 6.0 0.00 0.00 0.00 53 1017.4
20260508134610 64 314 2.0 6.0 0.00 0.00 0.00 55 1017.4
20260508133110 64 32 3.0 8.0 0.00 0.00 0.00 55 1017.4
20260508131610 65 31 4.0 10.0 0.00 0.00 0.00 54 1017.5
20260508124610 65 288 3.0 9.0 0.00 0.00 0.00 53 1017.3
20260508123111 66 328 5.0 13.0 0.00 0.00 0.00 51 1017.4
20260508121610 65 286 2.0 7.0 0.00 0.00 0.00 51 1017.3
20260508120109 63 324 2.0 8.0 0.00 0.00 0.00 54 1017.4
20260508114610 65 332 2.0 8.0 0.00 0.00 0.00 54 1017.4
20260508113109 63 321 3.0 5.0 0.00 0.00 0.00 60 1017.3
20260508110109 63 309 3.0 5.0 0.00 0.00 0.00 58 1017.5
20260508104609 63 300 3.0 8.0 0.00 0.00 0.00 58 1017.5
20260508103110 61 51 1.0 4.0 0.00 0.00 0.00 60 1017.6
20260508101609 61 42 4.0 6.0 0.00 0.00 0.00 61 1017.7
20260508094609 61 338 2.0 4.0 0.00 0.00 0.00 62 1017.7
20260508093109 60 19 4.0 9.0 0.00 0.00 0.00 65 1017.7
20260508091609 61 296 3.0 10.0 0.00 0.00 0.00 63 1018.0
20260508090110 61 279 2.0 5.0 0.00 0.00 0.00 64 1017.7
20260508084614 58 314 2.0 6.0 0.00 0.00 0.00 67 1017.8
20260508083114 59 261 2.0 7.0 0.00 0.00 0.00 66 1017.7
20260508081614 60 313 2.0 5.0 0.00 0.00 0.00 66 1017.7
20260508080113 57 262 1.0 4.0 0.00 0.00 0.00 71 1017.7
20260508074613 58 331 3.0 7.0 0.00 0.00 0.00 71 1017.7
20260508073113 58 266 3.0 5.0 0.00 0.00 0.00 70 1017.7
20260508071613 59 294 2.0 5.0 0.00 0.00 0.00 69 1017.5
20260508070113 58 31 3.0 7.0 0.00 0.00 0.00 70 1017.5
20260508063113 56 285 6.0 10.0 0.00 0.00 0.00 74 1017.4
20260508061612 56 334 4.0 10.0 0.00 0.00 0.00 75 1017.2
20260508060112 56 334 2.0 8.0 0.00 0.00 0.00 76 1017.1
20260508053112 54 348 3.0 4.0 0.00 0.00 0.00 78 1017.1
20260508051612 53 46 4.0 5.0 0.00 0.00 0.00 80 1017.1
20260508050112 52 339 2.0 8.0 0.00 0.00 0.00 83 1016.9
20260508044612 49 290 1.0 3.0 0.00 0.00 0.00 87 1016.9
20260508041611 47 285 0.0 2.0 0.00 0.00 0.00 88 1016.7
20260508040111 47 286 0.0 0.0 0.00 0.00 0.00 86 1016.7
20260508034611 47 286 0.0 0.0 0.00 0.00 0.00 85 1016.5
20260508033111 48 286 0.0 2.0 0.00 0.00 0.00 85 1016.5
20260508031611 48 306 1.0 5.0 0.00 0.00 0.00 84 1016.2
20260508030111 49 319 2.0 7.0 0.00 0.00 0.00 84 1016.1
20260508024612 49 301 3.0 4.0 0.00 0.00 0.00 83 1016.2
20260508023111 50 319 2.0 4.0 0.00 0.00 0.00 82 1016.1
20260508020111 52 298 2.0 5.0 0.00 0.00 0.00 80 1015.9
20260508013110 53 315 3.0 8.0 0.00 0.00 0.00 78 1015.8
20260508011610 54 317 3.0 8.0 0.00 0.00 0.00 77 1015.8
20260508010110 54 331 2.0 5.0 0.00 0.00 0.00 77 1015.7
20260508004610 54 304 2.0 5.0 0.00 0.00 0.00 76 1015.7
20260508001610 56 304 3.0 6.0 0.00 0.00 0.00 75 1015.7
20260507234610 56 319 2.0 5.0 0.00 0.00 0.00 74 1015.8